Printer-friendly version

IAU Minor Planet Center

Minor Planet Center

MPEC 2000-V26: 2000 SG344

The following Minor Planet Electronic Circular may be linked-to from your own Web pages, but must not otherwise be redistributed electronically.


Read MPEC 2000-V25 Read MPEC 2000-V27


M.P.E.C. 2000-V26                                Issued 2000 Nov. 8, 17:44 UT

     The Minor Planet Electronic Circulars contain information on unusual
         minor planets and routine data on comets.  They are published
   on behalf of Commission 20 of the International Astronomical Union by the
          Minor Planet Center, Smithsonian Astrophysical Observatory,
                          Cambridge, MA 02138, U.S.A.

             Prepared using the Tamkin Foundation Computer Network

                              MPC@CFA.HARVARD.EDU
          URL http://cfa-www.harvard.edu/iau/mpc.html  ISSN 1523-6714

                                  2000 SG344

                    Revision to MPEC 2000-U24 and 2000-V15

Observations:
     K00SY4G  C1999 05 21.21959 13 03 54.29 -01 21 39.7          18.0        704
     K00SY4G  C1999 05 21.22957 13 03 54.81 -01 22 03.2          18.4        704
     K00SY4G  C1999 05 21.23961 13 03 55.47 -01 22 24.4          19.0        704
     K00SY4G  C1999 05 21.24961 13 03 56.12 -01 22 50.0          18.1        704

Observer details:
704 Lincoln Laboratory ETS, New Mexico.  Observers M. Blythe, F. Shelly,
    M. Bezpalko, M. Elowitz, R. Huber, L. Manguso.  Measurers J. Stuart,
    R. Sayer, J. B. Evans, H. Viggh.  1.0-m f/2.15 reflector + CCD.

Orbital elements:
2000 SG344
Epoch 2000 Sept. 13.0 TT = JDT 2451800.5                Williams
M 254.43448              (2000.0)            P               Q
n   1.01582959     Peri.  272.95216     -0.26877608     -0.96320260
a   0.9800663      Node   192.63931     +0.88447565     -0.24663651
e   0.0674466      Incl.    0.10906     +0.38139514     -0.10682316
P   0.97           H   24.7           G   0.15           U   4
Residuals in seconds of arc
990515 704  0.9-  0.0     990521 704  0.1+  1.7+    000930 568  0.3+  0.2+
990515 704  0.8+  0.2+    990521 704  0.3+  0.5-    001001 568  0.4-  0.2+
990515 704  0.4-  0.2+    000929 568  0.0   0.1-    001001 568  0.1-  0.2+
990515 704  0.5+  0.1+    000929 568  0.4-  0.1-    001001 568  0.1+  0.2+
990515 704  0.4-  0.2+    000930 568  0.2-  0.2-    001001 568  0.1+  0.3+
990517 703  1.0+  0.3+    000930 568  0.0   0.3-    001002 568  0.3+  0.1+
990517 703  0.1+  0.1+    000930 568  0.3+  0.4-    001002 568  0.1+  0.1+
990517 703  0.4+  0.6-    000930 568  0.1+  0.4-    001003 568  0.2+  0.2-
990517 703  0.3-  0.3-    000930 568  0.1-  0.2+    001003 568  0.1-  0.0
990521 704  0.5-  0.7-    000930 568  0.2+  0.2+
990521 704  0.9-  0.7-    000930 568  0.1-  0.2+

Gareth V. Williams           (C) Copyright 2000 MPC           M.P.E.C. 2000-V26

Read MPEC 2000-V25 Read MPEC 2000-V27


Our Web policy. Index to the CBAT/MPC/ICQ pages.


Valid HTML 4.01!